Location: Central Falls
(41.8900°N, 71.3929°W)
Time: 02:18:11
(UTC+00:00)

Vanguard 2 - Pass Details

Date: 05 December 2023
Orbit: 554 x 2918 km, 32.9° (Epoch: 01 March)

Event Time Altitude Azimuth Distance (km) Brightness Sun altitude
Rises 01:32:16 0° 232° (SW) 6,732 12.7 -47.1°
Reaches altitude 10° 01:37:01 10° 227° (SW) 5,741 12.2 -48.0°
Enters shadow 01:48:01 38° 199° (SSW) 3,699 10.8 -50.0°
Maximum altitude 01:53:11 47° 161° (SSE) 3,193 - -50.9°
Drops below altitude 10° 02:05:25 10° 94° (E) 4,429 - -53.0°
Sets 02:08:32 0° 88° (E) 5,139 - -53.6°
